[[[{"header":{"parameterUnit":"kt","parameterCategory":2,"dx":1,"dy":1,"la1":30.253999710083008,"la2":30.299108505249023,"lo1":-89.0895004272461,"lo2":-89.04439544677734,"nx":28,"ny":28,"refTime":"2022-10-02T21:00:00:Z","depth":0,"parameterNumber":1,"parameterNumberName":"U-component_of_WINDS"},"data":[-8.1208,-8.1443,-8.1424,-8.1683,-8.1709,-8.1882,-8.1937,-8.2005,-8.2054,-8.2257,-8.2369,-8.2371,-8.241,-8.2538,-8.2657,-8.2655,-8.2707,-8.2805,-8.2785,-8.2364,-8.2304,-8.2247,-8.2189,-8.2817,-8.2818,-8.3224,-8.3228,-8.3231,-8.0901,-8.093,-8.1061,-8.1175,-8.1287,-8.1179,-8.126,-8.136,-8.1517,-8.1579,-8.1688,-8.1864,-8.2,-8.2005,-8.213,-8.2238,-8.2194,-8.2274,-8.2265,-8.2272,-8.1821,-8.1761,-8.2308,-8.2308,-8.2308,-8.2307,-8.2307,-8.2307,-8.0337,-8.048,-8.0536,-8.0677,-8.0729,-8.0804,-8.0936,-8.0935,-8.1062,-8.1192,-8.1141,-8.1317,-8.1373,-8.1514,-8.1555,-8.169,-8.1597,-8.1677,-8.1697,-8.1718,-8.1744,-8.116,-8.1711,-8.1709,-8.1707,-8.1706,-8.1705,0,-7.9917,-7.989,-8.0014,-8.0133,-8.0235,-8.0324,-8.0402,-8.0482,-8.0414,-8.0522,-8.0675,-8.076,-8.0926,-8.1067,-8.1179,-8.1204,-8.1101,-8.1089,-8.1143,-8.117,-8.1181,-8.1177,-8.0442,-8.1072,-8.1067,-8.1063,-8.106,-8.1058,-7.9345,-7.9514,-7.9561,-7.9651,-7.9687,-7.9834,-7.9916,-7.9843,-7.9934,-8.0017,-8.0146,-8.0286,-8.0394,-8.0643,-8.0636,-8.076,-8.0711,-8.0954,-8.0729,-8.0748,-8.0713,-8.0704,-8.072,-8.0999,-8.1006,-8.1012,-8.1017,0,-7.9025,-7.8988,-7.9242,-7.9271,-7.9283,-7.9463,-7.9487,-7.9625,-7.9607,-7.9795,-7.9834,-7.9807,-7.9958,-7.9912,-8.0075,-8.0046,-8.0341,-8.029,-8.032,-8.0307,-8.052,-8.05,-8.1218,-8.1308,-8.0657,-8.0663,-8.0669,0,-7.8521,-7.8745,-7.8677,-7.8826,-7.9072,-7.8991,-7.9237,-7.9245,-7.9292,-7.9438,-7.9314,-7.9454,-7.9373,-7.9507,-7.9465,-7.9697,-7.9728,-7.9719,-7.9705,-7.973,-7.9731,-7.9776,-7.9745,-7.9667,-7.9664,-7.9661,-7.9658,0,-7.8023,-7.8248,-7.849,-7.8535,-7.8587,-7.8703,-7.873,-7.878,-7.8861,-7.8958,-7.9009,-7.9129,-7.9195,-7.9289,-7.9233,-7.9082,-7.9516,-7.9297,-7.9507,-7.9509,-7.9605,-7.96,-8.0247,-7.9653,-7.9652,-7.9651,-7.965,0,-7.7609,-7.771,-7.8067,-7.8106,-7.8168,-7.8328,-7.8439,-7.8565,-7.8627,-7.861,-7.8686,-7.8597,-7.8796,-7.8581,-7.8854,-7.8673,-7.8745,-7.8754,-7.8768,-7.8783,-7.8544,-7.8915,-7.9537,-7.96,-7.8797,-7.879,-7.8783,0,-7.7049,-7.7398,-7.733,-7.7671,-7.7825,-7.7673,-7.7849,-7.7907,-7.7899,-7.8028,-7.8018,-7.8166,-7.7996,-7.8036,-7.8177,-7.8173,-7.8409,-7.814,-7.8326,-7.8333,-7.8313,-7.8885,-7.8989,-7.9406,-7.8692,-7.8701,-7.8708,0,-7.6609,-7.6669,-7.6735,-7.6782,-7.6846,-7.6975,-7.7177,-7.7305,-7.7394,-7.7474,-7.764,-7.7847,-7.7726,-7.7794,-7.7733,-7.7883,-7.8247,-7.7733,-7.7734,-7.7827,-7.8642,-7.8739,-7.881,-7.8172,-7.8184,-7.8192,-7.8636,0,-7.5991,-7.616,-7.6336,-7.6444,-7.6536,-7.6746,-7.6695,-7.6798,-7.6729,-7.6715,-7.6959,-7.6995,-7.7126,-7.7192,-7.7127,-7.7485,-7.7418,-7.7288,-7.7075,-7.7451,-7.7596,-7.7655,-7.6864,-7.6857,-7.6852,-7.6847,0,0,-7.5464,-7.5704,-7.5622,-7.5815,-7.5887,-7.5724,-7.5954,-7.6005,-7.6113,-7.6166,-7.6046,-7.6344,-7.6379,-7.668,-7.6793,-7.6847,-7.6905,-7.6776,-7.7273,-7.7321,-7.7365,-7.752,-7.7583,-7.6837,-7.6835,-7.6833,-7.6831,0,-7.5227,-7.5265,-7.5493,-7.5542,-7.5611,-7.5584,-7.564,-7.5679,-7.5681,-7.5919,-7.5781,-7.5922,-7.6162,-7.6216,-7.6275,-7.6738,-7.6627,-7.6782,-7.7049,-7.7219,-7.7274,-7.7323,-7.7487,-7.7547,-7.6818,-7.6819,-7.6819,0,-7.4783,-7.4813,-7.4917,-7.5073,-7.5116,-7.5279,-7.5043,-7.5225,-7.5344,-7.5157,-7.5396,-7.5409,-7.5477,-7.5769,-7.5898,-7.5793,-7.6376,-7.6183,-7.6216,-7.6229,-7.6392,-7.6458,-7.6517,-7.574,-7.5736,-7.5733,0,0,-7.4586,-7.4742,-7.4749,-7.5018,-7.5055,-7.5018,-7.5099,-7.5039,-7.5103,-7.513,-7.5143,-7.5211,-7.5348,-7.5442,-7.5568,-7.5897,-7.5904,-7.6052,-7.6103,-7.6145,-7.6181,-7.6354,-7.642,-7.5719,-7.5719,-7.5719,0,0,-7.4491,-7.4509,-7.4428,-7.4734,-7.48,-7.4824,-7.499,-7.4892,-7.5,-7.497,-7.4877,-7.4891,-7.5162,-7.5181,-7.5008,-7.5492,-7.5282,-7.5322,-7.547,-7.5533,-7.5583,-7.5573,-7.477,0,0,0,0,0,-7.4221,-7.4506,-7.4433,-7.4476,-7.4672,-7.4865,-7.4889,-7.4818,-7.4671,-7.4804,-7.48,-7.4674,-7.5068,-7.4912,-7.4957,-7.5151,-7.5547,-7.5577,-7.5606,-7.5873,-7.594,-7.5996,0,0,0,0,0,0,-7.4238,-7.4291,-7.4425,-7.4463,-7.4505,-7.4854,-7.4589,-7.4577,-7.4655,-7.4627,-7.4679,-7.4676,-7.4619,-7.4884,-7.4926,-7.5112,-7.4756,-7.5559,-7.5585,-7.5608,-7.5896,-7.595,-7.5997,0,0,0,0,0,-7.425,-7.4293,-7.4626,-7.4458,-7.4495,-7.4469,-7.4577,-7.4565,-7.4624,-7.4618,-7.4611,-7.4564,-7.4626,-7.4656,-7.4908,-7.5095,-7.4727,-7.4743,-7.5575,-7.5596,-7.5614,-7.5923,0,0,0,0,0,0,-7.426,-7.4284,-7.4632,-7.4641,-7.4344,-7.4448,-7.4461,-7.4556,-7.4608,-7.4604,-7.4496,-7.4474,-7.4635,-7.4656,-7.468,-7.5093,-7.4703,-7.4719,-7.4729,-7.5591,-7.5607,-7.5621,0,0,0,0,0,0,-7.426,-7.4293,-7.4636,-7.4497,-7.4489,-7.4429,-7.4441,-7.4645,-7.4611,-7.4483,-7.4466,-7.4486,-7.4599,-7.4658,-7.4676,-7.4997,-7.4685,-7.47,-7.4711,-7.4718,-7.5604,-7.5617,0,0,0,0,0,0,-7.4272,-7.43,-7.4494,-7.4489,-7.4481,-7.4574,-7.4607,-7.4812,-7.4492,-7.4483,-7.4461,-7.4447,-7.4605,-7.4621,-7.4674,-7.4989,-7.4995,-7.4686,-7.4696,-7.4703,-7.4708,0,0,0,0,0,0,0,-7.4282,-7.4114,-7.458,-7.4481,-7.4474,-7.4722,-7.4724,-7.4726,-7.4489,-7.4477,-7.4464,-7.4453,-7.4598,-7.4615,-7.4632,-7.4982,0,0,-7.4684,-7.4691,0,0,0,0,0,0,0,0,-7.41,-7.411,-7.458,-7.4582,-7.4584,-7.4722,-7.4724,-7.4726,-7.4487,-7.4477,-7.4467,-7.4458,-7.4602,-7.4616,-7.463,0,0,0,0,0,0,0,0,0,0,0,0,0,0,0,-7.4581,-7.4582,0,-7.4722,-7.4724,-7.4725,-7.4485,-7.4477,-7.4469,-7.4461,-7.4606,-7.4617,-7.4629,0,0,0,0,0,0,0,0,0,0,0,0,0,0,0,0,0,0,0,0,0,0,0,0,0,0,0,0,0,0,0,0,0,0,0,0,0,0,0,0,0,0,0,0,0,0,0,0,0,0,0,0,0,0,0,0,0,0,0,0,0,0,0,0,0,0,0,0,0]}],[{"header":{"parameterUnit":"kt","parameterCategory":2,"dx":1,"dy":1,"la1":30.253999710083008,"la2":30.299108505249023,"lo1":-89.0895004272461,"lo2":-89.04439544677734,"nx":28,"ny":28,"refTime":"2022-10-02T21:00:00:Z","depth":0,"parameterNumber":2,"parameterNumberName":"V-component_of_WINDS"},"data":[-7.9612,-7.9771,-7.9766,-7.9945,-7.9971,-8.0091,-8.0133,-8.0186,-8.0226,-8.0369,-8.0449,-8.046,-8.0498,-8.0592,-8.0678,-8.0681,-8.0717,-8.0777,-8.0769,-8.051,-8.0473,-8.0438,-8.04,-8.0785,-8.0786,-8.1038,-8.1041,-8.1042,-7.9418,-7.9445,-7.9539,-7.9626,-7.9706,-7.9645,-7.9709,-7.978,-7.9889,-7.9941,-8.0021,-8.0146,-8.0244,-8.0262,-8.0355,-8.0428,-8.0404,-8.0453,-8.0447,-8.0453,-8.0176,-8.0135,-8.047,-8.047,-8.047,-8.047,-8.047,-8.047,-7.9062,-7.9159,-7.9209,-7.9311,-7.9353,-7.9412,-7.9502,-7.9513,-7.9605,-7.9702,-7.9678,-7.9802,-7.9852,-7.9963,-7.9998,-8.0093,-8.0038,-8.009,-8.0103,-8.0116,-8.013,-7.9763,-8.0109,-8.0108,-8.0107,-8.0107,-8.0106,0,-7.88,-7.879,-7.888,-7.8969,-7.9043,-7.9111,-7.9173,-7.9229,-7.9204,-7.9281,-7.9391,-7.9453,-7.9576,-7.9679,-7.9765,-7.9791,-7.9736,-7.973,-7.9766,-7.9778,-7.9777,-7.9778,-7.9324,-7.972,-7.9717,-7.9714,-7.9713,-7.9711,-7.844,-7.8554,-7.8605,-7.8669,-7.8701,-7.8806,-7.8866,-7.8836,-7.8902,-7.8973,-7.9059,-7.9162,-7.9242,-7.942,-7.9431,-7.9524,-7.9497,-7.9649,-7.9511,-7.9517,-7.9497,-7.949,-7.95,-7.9676,-7.9681,-7.9684,-7.9687,0,-7.8237,-7.8229,-7.8404,-7.8443,-7.8456,-7.8577,-7.8609,-7.8705,-7.8705,-7.8836,-7.8865,-7.8866,-7.8975,-7.8962,-7.9084,-7.9074,-7.927,-7.9242,-7.9251,-7.9244,-7.9377,-7.9364,-7.9815,-7.9872,-7.9474,-7.9478,-7.9481,0,-7.7925,-7.8077,-7.8055,-7.8158,-7.8324,-7.829,-7.8455,-7.8472,-7.8516,-7.8618,-7.8553,-7.8651,-7.8619,-7.8715,-7.8701,-7.8858,-7.8882,-7.8883,-7.8877,-7.8888,-7.8888,-7.8922,-7.8903,-7.8862,-7.8859,-7.8857,-7.8855,0,-7.7607,-7.7775,-7.7941,-7.7978,-7.8035,-7.8114,-7.8141,-7.819,-7.825,-7.8326,-7.8365,-7.8457,-7.8507,-7.8578,-7.8558,-7.8465,-7.8751,-7.8619,-7.8752,-7.8753,-7.8816,-7.8812,-7.9215,-7.8853,-7.8852,-7.8851,-7.885,0,-7.7354,-7.7433,-7.7677,-7.7722,-7.7767,-7.7877,-7.7964,-7.8056,-7.8112,-7.811,-7.817,-7.8125,-7.8264,-7.8132,-7.8322,-7.8205,-7.8258,-7.8272,-7.8281,-7.8292,-7.8146,-7.8373,-7.8759,-7.8798,-7.8302,-7.8298,-7.8294,0,-7.6991,-7.7236,-7.7208,-7.744,-7.7551,-7.7469,-7.7591,-7.7643,-7.765,-7.7744,-7.7751,-7.786,-7.776,-7.7792,-7.7887,-7.7899,-7.8051,-7.7879,-7.8012,-7.8018,-7.7998,-7.8354,-7.8414,-7.8676,-7.8235,-7.8241,-7.8246,0,-7.6709,-7.6778,-7.6822,-7.6862,-7.6927,-7.702,-7.716,-7.726,-7.7324,-7.7391,-7.7507,-7.766,-7.7589,-7.7644,-7.7618,-7.7718,-7.7947,-7.763,-7.763,-7.7686,-7.8205,-7.8261,-7.8306,-7.7907,-7.7914,-7.792,-7.8199,0,-7.6324,-7.6446,-7.6565,-7.6657,-7.6727,-7.6873,-7.686,-7.6935,-7.6901,-7.6906,-7.7077,-7.7119,-7.7221,-7.7269,-7.7238,-7.7473,-7.7432,-7.7356,-7.7228,-7.7462,-7.7553,-7.7591,-7.7092,-7.7088,-7.7084,-7.7082,0,0,-7.5978,-7.6153,-7.6119,-7.6255,-7.6311,-7.6225,-7.6382,-7.6428,-7.6523,-7.6563,-7.6491,-7.6713,-7.6751,-7.696,-7.7032,-7.7075,-7.7115,-7.7035,-7.7351,-7.7381,-7.7409,-7.7507,-7.7546,-7.7076,-7.7075,-7.7074,-7.7073,0,-7.5835,-7.5876,-7.6032,-7.6077,-7.6143,-7.614,-7.6178,-7.6229,-7.6239,-7.6408,-7.6334,-7.6435,-7.6616,-7.6664,-7.6712,-7.7009,-7.6948,-7.7042,-7.7204,-7.7319,-7.7353,-7.7383,-7.7487,-7.7525,-7.7065,-7.7065,-7.7066,0,-7.5553,-7.559,-7.5665,-7.5791,-7.5834,-7.5952,-7.5812,-7.5943,-7.6029,-7.593,-7.6098,-7.612,-7.6185,-7.6386,-7.6475,-7.6412,-7.6796,-7.6674,-7.6694,-7.6704,-7.6814,-7.6855,-7.6892,-7.6406,-7.6404,-7.6402,0,0,-7.543,-7.5544,-7.5575,-7.576,-7.5792,-7.579,-7.5852,-7.5825,-7.5885,-7.591,-7.5937,-7.5997,-7.61,-7.617,-7.6267,-7.649,-7.65,-7.6593,-7.6624,-7.665,-7.6673,-7.679,-7.6831,-7.6393,-7.6393,-7.6393,0,0,-7.5372,-7.5415,-7.5371,-7.5584,-7.5643,-7.5686,-7.5798,-7.5745,-7.5832,-7.5814,-7.5776,-7.579,-7.5978,-7.6003,-7.589,-7.6221,-7.6094,-7.612,-7.6198,-7.6237,-7.6267,-7.6257,-7.5754,0,0,0,0,0,-7.5219,-7.5409,-7.5369,-7.5403,-7.5564,-7.5708,-7.5728,-7.5701,-7.561,-7.57,-7.5713,-7.5645,-7.5934,-7.5833,-7.5867,-7.5993,-7.6284,-7.6303,-7.6322,-7.6474,-7.6515,-7.6549,0,0,0,0,0,0,-7.5232,-7.5273,-7.5364,-7.5415,-7.5451,-7.5701,-7.5541,-7.5539,-7.56,-7.5584,-7.5644,-7.5646,-7.5626,-7.5814,-7.5845,-7.5965,-7.5744,-7.6292,-7.6308,-7.6323,-7.6488,-7.6521,-7.655,0,0,0,0,0,-7.5242,-7.5275,-7.5541,-7.5412,-7.5443,-7.5452,-7.5534,-7.5531,-7.5577,-7.56,-7.56,-7.5551,-7.563,-7.5654,-7.5832,-7.5952,-7.5722,-7.5734,-7.6302,-7.6315,-7.6327,-7.6504,0,0,0,0,0,0,-7.525,-7.5273,-7.5547,-7.5555,-7.5338,-7.5437,-7.5452,-7.5524,-7.5588,-7.559,-7.5504,-7.5491,-7.5636,-7.5653,-7.5672,-7.5948,-7.5704,-7.5716,-7.5724,-7.6312,-7.6322,-7.6331,0,0,0,0,0,0,-7.5255,-7.5281,-7.5551,-7.546,-7.5457,-7.5424,-7.5437,-7.5585,-7.559,-7.5488,-7.5479,-7.5497,-7.5607,-7.5654,-7.5668,-7.59,-7.5691,-7.5702,-7.571,-7.5715,-7.632,-7.6328,0,0,0,0,0,0,-7.5265,-7.5288,-7.5457,-7.5456,-7.5453,-7.5546,-7.5554,-7.5721,-7.5512,-7.5487,-7.5492,-7.5483,-7.5609,-7.5623,-7.5666,-7.5892,-7.5898,-7.5691,-7.5699,-7.5704,-7.5708,0,0,0,0,0,0,0,-7.5274,-7.5131,-7.5497,-7.5452,-7.545,-7.5633,-7.5635,-7.5638,-7.551,-7.5502,-7.5494,-7.5487,-7.5626,-7.5638,-7.5651,-7.5885,0,0,-7.569,-7.5695,0,0,0,0,0,0,0,0,-7.5121,-7.5129,-7.5497,-7.5499,-7.5501,-7.5634,-7.5635,-7.5637,-7.5508,-7.5502,-7.5496,-7.549,-7.5629,-7.5639,-7.5649,0,0,0,0,0,0,0,0,0,0,0,0,0,0,0,-7.5497,-7.5499,0,-7.5634,-7.5635,-7.5637,-7.5507,-7.5502,-7.5497,-7.5492,-7.5632,-7.564,-7.5649,0,0,0,0,0,0,0,0,0,0,0,0,0,0,0,0,0,0,0,0,0,0,0,0,0,0,0,0,0,0,0,0,0,0,0,0,0,0,0,0,0,0,0,0,0,0,0,0,0,0,0,0,0,0,0,0,0,0,0,0,0,0,0,0,0,0,0,0,0]}]]]